{"data":{"norad_id":60547,"intl_designator":"2024-149CH","name":"UMBRA-10","alt_names":[],"object_type":"PAYLOAD","status":"ACTIVE","operator":null,"country":"US","launch_date":"2024-08-16","launch_site_code":"AFWTR","launch_vehicle":null,"mission":null,"orbit_class":"UNKNOWN","rcs_meters":null,"size_class":null,"mass_kg":null,"dimensions":null,"purposes":[],"wikipedia_slug":null,"has_3d_model":false,"image_url":null,"decayed_at":null,"tle_current":{"epoch":"2026-09-22T17:35:29.370048Z","epoch_age_seconds":96167,"freshness":"FRESH","line1":"1 60547U 24149CH  26265.73297882  .00012346  00000+0  56435-3 0  9990","line2":"2 60547  97.6948 354.8203 0000924  57.5133 302.6191 15.20706750115542","mean_motion":15.2070675,"eccentricity":9.24e-5,"inclination_deg":97.6948,"raan_deg":354.8203,"arg_perigee_deg":57.5133,"mean_anomaly_deg":302.6191,"bstar":0.00056435,"rev_number":11554,"period_min":94.692813062084,"perigee_km":503.07167568823,"apogee_km":504.34344056257,"semimajor_km":6881.8445581254,"source":"CELESTRAK","updated_at":"2026-09-23T09:00:20.673133Z"}}}